Location: Praha
(50.0830°N, 14.4670°E)
Time: 05:47:57
(UTC+01:00)

ISS - Visible Passes

Search period start: 28 January 2022 00:00
Search period end: 07 February 2022 00:00
Orbit: 413 x 422 km, 51.6° (Epoch: 27 January)

Date Brightness Start Highest point End Pass type
(mag) Time Alt. Az. Time Alt. Az. Time Alt. Az.
28 Jan -3.7 18:17:49 10° W 18:21:08 66° N 18:22:26 33° ENE visible
28 Jan -0.7 19:54:38 10° WNW 19:55:22 15° W 19:55:22 15° W visible
29 Jan -3.6 17:29:41 10° W 17:33:00 64° N 17:36:20 10° E visible
29 Jan -3.2 19:06:32 10° WNW 19:09:19 58° W 19:09:19 58° W visible
30 Jan -3.9 18:18:25 10° WNW 18:21:46 84° NNE 18:23:19 29° E visible
30 Jan -0.7 19:55:22 10° W 19:56:15 16° W 19:56:15 16° W visible
31 Jan -3.8 17:30:17 10° WNW 17:33:37 72° N 17:36:58 10° E visible
31 Jan -2.8 19:07:08 10° W 19:10:19 42° SSW 19:10:19 42° SSW visible
01 Feb -3.4 18:18:57 10° WNW 18:22:14 60° SSW 18:24:28 19° SE visible
01 Feb -0.6 19:56:36 10° WSW 19:57:25 13° WSW 19:57:25 13° WSW visible
02 Feb -3.7 17:30:47 10° WNW 17:34:07 80° SSW 17:37:27 10° ESE visible
02 Feb -1.6 19:07:56 10° W 19:10:32 21° SW 19:11:41 18° S visible
03 Feb -2.0 18:19:31 10° W 18:22:31 31° SSW 18:25:30 10° SSE visible
05 Feb -0.8 18:20:35 10° WSW 18:22:34 15° SW 18:24:32 10° S visible
